Regional Weather Roundup
Issued by NWS

Home | Current Version | Previous Version | Graphics & Text | Print | Product List | Glossary Off
Versions: 1 2 3 4 5 6 7 8 9 10 11 12 13 14 15 16 17 18 19 20 21 22 23 24 25 26 27 28 29 30 31 32 33 34 35 36 37 38 39 40 41 42 43 44 45 46 47 48 49 50

854
ASUS43 KMKX 190111
RWRWI

WISCONSIN REGIONAL WEATHER ROUNDUP
NATIONAL WEATHER SERVICE MILWAUKEE/SULLIVAN WI
800 PM CDT FRI AUG 18 2017

NOTE: "FAIR" INDICATES FEW OR NO CLOUDS BELOW 12,000 FEET WITH NO
SIGNIFICANT WEATHER AND/OR OBSTRUCTIONS TO VISIBILITY.

WIZ001-002-006>008-014>016-023>028-190200-
NORTHWEST WISCONSIN

CITY           SKY/WX    TMP DP  RH WIND       PRES   REMARKS
SUPERIOR ARPT    N/A     68  62  82 W7        29.84R
ASHLAND        CLOUDY    66  62  87 W3        29.85R
HAYWARD        MOCLDY    67  62  84 CALM      29.88R
SIREN          PTCLDY    67  63  86 CALM      29.88S
CUMBERLAND     PTCLDY    64  63  94 W5        29.89R
RICE LAKE      PTCLDY    66  62  87 SW3       29.90R
CHETEK           N/A     67  65  93 CALM      29.89R
LADYSMITH      PTCLDY    66  61  82 SW5       29.90S
EAU CLAIRE     CLOUDY    67  62  84 W6        29.89R
MENOMONIE      CLOUDY    67  62  84 CALM      29.90R
NEW RICHMOND   CLOUDY    67  62  82 CALM      29.89F
OSCEOLA        PTCLDY    67  63  86 CALM      29.91S
$$

WIZ003>005-009-010-017-018-190200-
NORTH CENTRAL WISCONSIN

CITY           SKY/WX    TMP DP  RH WIND       PRES   REMARKS
MANITOWISH WTR CLOUDY    60  60  99 W3        29.88R
ARBOR VITAE    PTCLDY    62  59  89 CALM      29.88R
WOODRUFF       PTCLDY    62  59  89 CALM      29.88R
RHINELANDER    CLOUDY    62  57  83 W5        29.88S
EAGLE RIVER    CLOUDY    59  56  87 CALM      29.87S
LAND O LAKES   CLOUDY    60  58  94 CALM      29.89S
PHILLIPS       PTCLDY    63  61  93 CALM      29.88S
TOMAHAWK         N/A     61  58  89 CALM      29.88S
MEDFORD        CLOUDY    64  59  85 W3        29.89R
MERRILL        CLOUDY    64  63  94 W5        29.88S
$$

WIZ029-030-035-036-043>047-190200-
CENTRAL WISCONSIN

CITY           SKY/WX    TMP DP  RH WIND       PRES   REMARKS
WAUSAU         PTCLDY    65  58  78 W6        29.86S
MOSINEE        MOCLDY    64  61  88 W6        29.89S
MARSHFIELD     CLOUDY    65  62  90 W7        29.88S FOG
STEVENS POINT  MOCLDY    65  61  88 W3        29.88S
WAUPACA        CLOUDY    69  61  76 W3        29.87S
WAUTOMA        CLOUDY    67  61  81 W3        29.88S
WISC RAPIDS    CLOUDY    65  64  97 W5        29.89S
CAMP DOUGLAS   CLOUDY    65  62  91 W6        29.89S
$$

WIZ011>013-019>022-031-037>040-048>050-190200-
NORTHEAST WISCONSIN

CITY           SKY/WX    TMP DP  RH WIND       PRES   REMARKS
ANTIGO         CLOUDY    63  59  89 NW5       29.88S
SHAWANO        CLOUDY    68  61  77 W5        29.85R
OCONTO         CLOUDY    65  57  75 N3        29.83R
STURGEON BAY   MOCLDY    65  58  78 N10       29.84R
GREEN BAY      CLOUDY    66  62  87 W9        29.84R
MANITOWOC      MOCLDY    69  59  70 W7        29.84R
APPLETON       MOCLDY    66  57  72 W8        29.85R
CLINTONVILLE   CLOUDY    66  57  72 W7        29.86R
OSHKOSH        CLOUDY    68  60  75 W8        29.85S
$$

WIZ032>034-041-042-053>061-190200-
SOUTHWEST WISCONSIN

CITY           SKY/WX    TMP DP  RH WIND       PRES   REMARKS
LA CROSSE      CLEAR     71  63  75 S3        29.89S
SPARTA         CLOUDY    65  63  91 CALM      29.90S
VIROQUA        MOCLDY    65  64  97 W5        29.92S
BOSCOBEL       MOCLDY    69  62  78 CALM      29.90S
PRAIRIE DU CHI CLEAR     68  59  73 CALM      29.90R
PLATTEVILLE    CLEAR     67  62  84 N3        29.91S
$$

WIZ056-057-062-063-064-067-068-190200-
SOUTH CENTRAL WISCONSIN

CITY           SKY/WX    TMP DP  RH WIND       PRES   REMARKS
REEDSBURG      CLOUDY    67  62  83 W5        29.89S
BARABOO/DELLS  CLOUDY    67  59  76 W5        29.89S
LONE ROCK      CLOUDY    69  63  81 W7        29.89S
MINERAL POINT  PTCLDY    68  63  83 NW5       29.92R
MADISON        CLOUDY    69  60  73 W6        29.88R
MIDDLETON      CLOUDY    69  61  76 W6        29.90R
WATERTOWN      CLOUDY    68  61  77 W6        29.86S
MONROE         PTCLDY    68  61  77 W6        29.90S
JANESVILLE     MOCLDY    70  61  73 NW5       29.87F
$$

WIZ051-052-058>065-066-070>072-190200-
SOUTHEAST WISCONSIN

CITY           SKY/WX    TMP DP  RH WIND       PRES   REMARKS
MILWAUKEE      PTCLDY    75  59  57 NW9       29.85R
WAUKESHA       PTCLDY    66  59  77 W6        29.87R
MILWAUKEE/TIMM CLEAR     72  55  56 W7        29.86R
RACINE         MOCLDY    72  62  71 W3        29.86S
KENOSHA        MOCLDY    70  62  76 W6        29.86R
FOND DU LAC    CLOUDY    69  59  70 NW3       29.86R
SHEBOYGAN      CLEAR     68  62  81 NW6       29.84S
WEST BEND      CLOUDY    70  61  73 W7        29.85S
JUNEAU         CLOUDY    67  60  76 CALM      29.88R
$$

LSZ147-162-190200-
LAKE SUPERIOR

STATION/POSITION TIME  TEMP    WIND        PRES    WAVE
                       AIR SEA DIR/SP/G            HT/PER
                 (UTC) (F)     (DEG/KT/KT) (MB)    (FT/S)
W MID LAKE BUOY  2350   63 60  240/ 10/ 12 1009.3R   1/ 5
DEVILS ISLAND    0100   64     230/  9/ 10 1010.0R
SAXON HARBOR     0040   65     170/  3/  4 1010.2S
$$

LMZ867-665-643>646-190200-
LAKE MICHIGAN

STATION/POSITION TIME  TEMP    WIND        PRES    WAVE
                       AIR SEA DIR/SP/G            HT/PER
                 (UTC) (F)     (DEG/KT/KT) (MB)    (FT/S)
S GREEN BAY BUOY 0100   69 71  360/ 14/ 17 1009.9
N MID LAKE BUOY  0050   65 67  300/ 12/ 16 1009.9R   3/ 4
NORTHPORT PIER   0040   67     310/ 11/ 16 1009.8R
KEWAUNEE LAKESHO 0048   69     280/  3/  4 1009.1R
SHEBOYGAN LAKESH 0100   71     320/  6/  7 1010.0R
PORT WASHINGTON  0030   75     300/  2/  4 1011.2S
ATWATER BUOY     0009   74 71  280/ 10/ 12 1010.7
MILWAUKEE LAKESH 0050   74     290/ 10/ 12   N/A
S MID LAKE BUOY  0050   70 71  120/  6/  6 1010.6S   1/ 5
KENOSHA   LAKESH 0100   75     280/  7/ 10 1010.5
$$

TC  - TEMPERATURE IN CELSIUS
VSB - VISIBILITY IN STATUTE MILES
WCI - WIND CHILL INDEX
HX  - HEAT INDEX





USA.gov is the U.S. government's official web portal to all federal, state and local government web resources and services.